Location: Harbor Island
(32.3990°N, 80.4435°W)
Time: 04:29:57
(UTC-04:00)

Daily predictions for brighter satellites

Satellite Brightness Start Highest point End
(mag) Time Altitude Azimuth Time Altitude Azimuth Time Altitude Azimuth
ADEOS II 3.7 04:13:54 10° NE 04:17:45 31° ENE 04:17:45 31° ENE
Cosmos 1607 4.5 04:31:09 54° NNE 04:31:09 54° NNE 04:35:55 10° NNE
Cosmos 1943 4.3 04:30:00 10° N 04:35:23 42° ENE 04:40:43 10° SE
Atlas Centaur 2 2.8 04:39:52 51° ESE 04:39:52 51° ESE 04:43:55 10° E
Cosmos 2263 Rocket 2.9 04:40:13 49° NNE 04:40:13 49° NNE 04:44:20 10° NNE
Atlas 2A Centaur Rocket 3.8 04:43:07 58° SSW 04:43:42 60° S 05:11:54 10° ESE
MOS 1-B 4.2 05:01:17 10° N 05:07:04 78° WNW 05:07:35 72° SW
GOES 2 Rocket 3.7 05:18:26 40° SSE 05:18:26 40° SSE 05:21:43 10° ESE
USA 238 DEB 3.9 05:13:49 26° SSW 05:17:57 68° ESE 05:24:52 10° NE
USA 238 4.0 05:13:52 25° SSW 05:18:03 67° ESE 05:24:58 10° NE
CZ-4B R/B 3.5 05:17:30 10° NNE 05:22:46 65° ESE 05:28:03 10° S
H-2A R/B 3.8 04:27:33 10° W 05:24:41 68° SSW 05:30:08 10° ESE
GPS 2-05 Rocket1 3.7 05:31:07 40° ESE 05:31:07 40° ESE 05:33:14 10° ESE
Cosmos 332 Rocket 4.0 05:31:01 10° N 05:35:48 69° ENE 05:40:33 10° SSE
Cosmos 371 Rocket 3.7 05:35:42 10° N 05:40:32 64° ENE 05:45:20 10° SSE
Cosmos 1570 Rocket 4.0 05:36:54 10° NNW 05:42:08 62° WSW 05:47:23 10° S
BREEZE-M R/B 4.1 05:42:05 33° NW 05:42:32 34° NNW 05:48:46 10° NE
S3M 4.5 05:39:57 10° S 05:46:03 62° E 05:52:17 10° NNE
Okean O Rocket 1.7 05:42:08 10° N 05:46:21 51° WNW 05:47:42 36° SW
Nadezhda 2 Rocket 4.4 05:41:35 10° N 05:47:54 73° W 05:54:05 10° S
Cosmos 2208 Rocket 4.0 05:44:22 10° NNW 05:49:33 59° WSW 05:54:38 10° S
Meteor 2-11 Rocket 4.3 05:47:41 10° SSW 05:53:44 73° W 05:59:48 10° N
Cosmos 2278 Rocket 4.4 05:51:42 10° SSE 05:56:18 26° ESE 06:00:55 10° NE
ATLAS 3B R/B 2.9 05:51:33 20° SW 05:56:46 58° WNW 06:03:52 10° NNE
ADEOS II 3.1 05:53:58 10° NNW 05:58:06 24° WNW 05:58:42 24° W
H-II Stage 2 3.7 05:57:56 20° S 05:58:23 21° S 06:01:19 10° ESE
IRS-1C Rocket 4.1 05:53:22 10° N 05:58:35 62° WNW 06:03:46 10° SSW
Cosmos 1975 3.5 05:55:25 10° NNW 05:59:05 32° W 06:00:55 22° SW
CZ-4B DEB 4.4 05:56:03 10° N 06:01:16 48° WNW 06:06:29 10° SW
Delta 2 Rocket 4.1 05:59:20 26° W 06:02:37 81° NNW 06:08:26 10° ENE
Landsat 4 3.6 06:01:55 10° S 06:05:43 81° WSW 06:09:33 10° NNW
DELTA 2 R/B (1) 4.3 06:01:58 15° WNW 06:06:27 48° NNE 06:11:49 10° E
Cosmos 1814 Rocket 4.3 06:04:30 10° NNW 06:09:41 72° ENE 06:14:52 10° SSE
Meteor 1-31 Rocket 2.8 06:06:17 10° N 06:10:05 54° WNW 06:13:49 10° SSW
Cosmos 1666 2.7 06:07:40 10° NNW 06:11:22 54° W 06:15:04 10° S
Tiangong 1 2.2 06:09:37 15° NW 06:11:26 31° NNE 06:13:52 10° E
Cosmos 1844 Rocket 2.6 06:08:20 10° SSW 06:13:57 70° WNW 06:19:38 10° NNE
Meteor 1-23 Rocket 4.2 06:09:50 10° S 06:15:22 86° E 06:20:58 10° N
ATLAS CENTAUR R/B 2.1 06:12:54 10° S 06:16:47 50° ESE 06:20:29 10° NE
Cosmos 1943 4.3 06:14:55 10° NW 06:19:02 21° W 06:23:08 10° SSW
Cosmos 1743 3.5 06:18:18 10° NNW 06:21:43 29° W 06:25:06 10° SSW
Cosmos 2263 Rocket 4.1 06:21:57 11° WNW 06:23:14 11° NW 06:24:56 10° NW
CZ-2C R/B 4.5 06:22:16 10° NE 06:26:19 30° E 06:30:26 10° SSE
ASTRO E2 3.1 06:23:57 14° WSW 06:27:15 56° SSE 06:31:13 10° E
Atlas Centaur 2 2.0 06:22:30 14° W 06:27:31 68° S 06:32:11 10° ESE
OAO 1 Rocket 4.5 06:25:30 14° W 06:30:13 81° NNW 06:35:36 10° ENE
Meteor 1-28 Rocket 3.1 06:32:34 10° S 06:36:16 70° WSW 06:40:00 10° NNW
Cosmos 1455 Rocket 4.4 06:36:24 10° NW 06:39:22 18° W 06:42:19 10° SW
Skynet4D Del rocket 4.1 06:36:29 10° WSW 06:42:03 49° S 06:47:13 10° ESE
Meteor 1-4 Rocket 3.8 06:39:47 10° NW 06:42:17 19° W 06:44:47 10° SW
NOSS 3-2 (A) 3.6 06:38:11 10° SW 06:43:56 56° WNW 06:50:13 10° NNE
Cosmos 841 Rocket 3.5 06:41:11 10° NNW 06:46:22 79° WSW 06:51:35 10° S
Feng Yun 1-1 Rocket 4.4 06:43:24 10° N 06:48:36 50° WNW 06:53:51 10° SSW
Okean-O 3.0 06:45:33 10° N 06:49:45 43° WNW 06:53:55 10° SW
ATLAS 5 CENTAUR R/B 3.6 06:46:17 10° NNW 06:52:14 49° ENE 06:58:38 10° SE
CZ-3 R/B 2.1 06:53:53 10° W 07:08:39 65° S 07:12:54 10° E
